Time,TemperatureF,DewpointF,PressureIn,WindDirection,WindDirectionDegrees,WindSpeedMPH,WindSpeedGustMPH,Humidity,HourlyPrecipIn,Conditions,Clouds,dailyrainin,SoftwareType,DateUTC
2013-09-19 00:01:00,54.1,51.8,30.17,SE,129,0.0,0.0,92,0.00,CLR,,0.00,WeatherDisplay:10.37,2013-09-19 04:01:00,
2013-09-19 00:04:00,54.2,51.9,30.17,SE,129,0.0,0.0,92,0.00,CLR,,0.00,WeatherDisplay:10.37,2013-09-19 04:04:00,
2013-09-19 00:09:00,54.2,51.9,30.18,SE,129,0.0,0.0,92,0.00,CLR,,0.00,WeatherDisplay:10.37,2013-09-19 04:09:00,
2013-09-19 00:10:00,54.2,51.9,30.18,SE,129,0.0,0.0,92,0.00,CLR,,0.00,WeatherDisplay:10.37,2013-09-19 04:10:00,
2013-09-19 00:15:00,54.3,52.3,30.18,SE,129,0.0,0.0,93,0.00,CLR,,0.00,WeatherDisplay:10.37,2013-09-19 04:15:00,
2013-09-19 00:20:00,54.4,52.4,30.18,SE,129,0.0,0.0,93,0.00,CLR,,0.00,WeatherDisplay:10.37,2013-09-19 04:20:00,
2013-09-19 00:25:00,54.4,52.4,30.18,SE,129,0.0,0.0,93,0.00,CLR,,0.00,WeatherDisplay:10.37,2013-09-19 04:25:00,
2013-09-19 00:30:00,54.3,52.0,30.18,SE,129,0.0,0.0,92,0.00,CLR,,0.00,WeatherDisplay:10.37,2013-09-19 04:30:00,
2013-09-19 00:35:00,54.3,52.0,30.19,SE,129,0.0,0.0,92,0.00,CLR,,0.00,WeatherDisplay:10.37,2013-09-19 04:35:00,
2013-09-19 00:40:00,54.2,51.9,30.19,SE,129,0.0,0.0,92,0.00,CLR,,0.00,WeatherDisplay:10.37,2013-09-19 04:40:00,
2013-09-19 00:45:00,54.2,51.9,30.19,SE,129,0.0,0.0,92,0.00,CLR,,0.00,WeatherDisplay:10.37,2013-09-19 04:45:00,
2013-09-19 00:50:00,54.1,51.8,30.19,SE,129,0.0,0.0,92,0.00,CLR,,0.00,WeatherDisplay:10.37,2013-09-19 04:50:00,
2013-09-19 00:55:00,54.1,51.8,30.19,SE,129,0.0,0.0,92,0.00,CLR,,0.00,WeatherDisplay:10.37,2013-09-19 04:55:00,
2013-09-19 01:00:00,54.1,51.8,30.19,SE,129,0.0,0.0,92,0.00,CLR,,0.00,WeatherDisplay:10.37,2013-09-19 05:00:00,
2013-09-19 01:05:00,54.1,51.8,30.19,SE,129,0.0,0.0,92,0.00,CLR,,0.00,WeatherDisplay:10.37,2013-09-19 05:05:00,
2013-09-19 01:10:00,54.1,51.8,30.19,SE,129,0.0,0.0,92,0.00,CLR,,0.00,WeatherDisplay:10.37,2013-09-19 05:10:00,
2013-09-19 01:15:00,54.1,51.8,30.19,SE,129,0.0,0.0,92,0.00,CLR,,0.00,WeatherDisplay:10.37,2013-09-19 05:15:00,
2013-09-19 01:20:00,54.1,51.8,30.19,SE,129,0.0,0.0,92,0.00,CLR,,0.00,WeatherDisplay:10.37,2013-09-19 05:20:00,
2013-09-19 01:25:00,54.1,51.8,30.19,SE,129,0.0,0.0,92,0.00,CLR,,0.00,WeatherDisplay:10.37,2013-09-19 05:25:00,
2013-09-19 01:30:00,54.1,51.8,30.19,SE,129,0.0,0.0,92,0.00,CLR,,0.00,WeatherDisplay:10.37,2013-09-19 05:30:00,
2013-09-19 01:35:00,54.1,51.8,30.19,SE,129,0.0,0.0,92,0.00,CLR,,0.00,WeatherDisplay:10.37,2013-09-19 05:35:00,
2013-09-19 01:40:00,54.1,51.8,30.19,SE,129,0.0,0.0,92,0.00,CLR,,0.00,WeatherDisplay:10.37,2013-09-19 05:40:00,
2013-09-19 01:45:00,54.2,51.9,30.19,SE,129,0.0,0.0,92,0.00,CLR,,0.00,WeatherDisplay:10.37,2013-09-19 05:45:00,
2013-09-19 01:50:00,54.3,52.3,30.18,SE,129,0.0,0.0,93,0.00,CLR,,0.00,WeatherDisplay:10.37,2013-09-19 05:50:00,
2013-09-19 01:55:00,54.4,52.4,30.18,SE,129,0.0,0.0,93,0.00,CLR,,0.00,WeatherDisplay:10.37,2013-09-19 05:55:00,
2013-09-19 02:00:00,54.5,52.5,30.18,SE,129,0.0,0.0,93,0.00,CLR,,0.00,WeatherDisplay:10.37,2013-09-19 06:00:00,
2013-09-19 02:05:00,54.6,52.6,30.18,SE,129,0.0,0.0,93,0.00,CLR,,0.00,WeatherDisplay:10.37,2013-09-19 06:05:00,
2013-09-19 02:10:00,54.6,52.6,30.18,SE,129,0.0,0.0,93,0.00,CLR,,0.00,WeatherDisplay:10.37,2013-09-19 06:10:00,
2013-09-19 02:15:00,54.6,52.6,30.17,SE,129,0.0,0.0,93,0.00,CLR,,0.00,WeatherDisplay:10.37,2013-09-19 06:15:00,
2013-09-19 02:20:00,54.6,52.6,30.17,SE,129,0.0,0.0,93,0.00,CLR,,0.00,WeatherDisplay:10.37,2013-09-19 06:20:00,
2013-09-19 02:25:00,54.6,52.6,30.17,SE,129,0.0,0.0,93,0.00,CLR,,0.00,WeatherDisplay:10.37,2013-09-19 06:25:00,
2013-09-19 02:30:00,54.5,52.5,30.17,SE,129,0.0,0.0,93,0.00,CLR,,0.00,WeatherDisplay:10.37,2013-09-19 06:30:00,
2013-09-19 02:35:00,54.5,52.5,30.17,SE,129,0.0,0.0,93,0.00,CLR,,0.00,WeatherDisplay:10.37,2013-09-19 06:35:00,
2013-09-19 02:40:00,54.4,52.4,30.17,SE,129,0.0,0.0,93,0.00,CLR,,0.00,WeatherDisplay:10.37,2013-09-19 06:40:00,
2013-09-19 02:45:00,54.4,52.4,30.17,SE,129,0.0,0.0,93,0.00,CLR,,0.00,WeatherDisplay:10.37,2013-09-19 06:45:00,
2013-09-19 02:50:00,54.3,52.3,30.17,SE,129,0.0,0.0,93,0.00,CLR,,0.00,WeatherDisplay:10.37,2013-09-19 06:50:00,
2013-09-19 02:55:00,54.3,52.3,30.17,SE,129,0.0,0.0,93,0.00,CLR,,0.00,WeatherDisplay:10.37,2013-09-19 06:55:00,
2013-09-19 03:00:00,54.4,52.4,30.17,SE,129,0.0,0.0,93,0.00,CLR,,0.00,WeatherDisplay:10.37,2013-09-19 07:00:00,
2013-09-19 03:05:00,54.5,52.5,30.17,SE,129,0.0,0.0,93,0.00,CLR,,0.00,WeatherDisplay:10.37,2013-09-19 07:05:00,
2013-09-19 03:10:00,54.6,52.6,30.17,SE,129,0.0,0.0,93,0.00,CLR,,0.00,WeatherDisplay:10.37,2013-09-19 07:10:00,
2013-09-19 03:15:00,54.7,53.0,30.17,SE,129,0.0,0.0,94,0.00,CLR,,0.00,WeatherDisplay:10.37,2013-09-19 07:15:00,
2013-09-19 03:20:00,54.9,53.2,30.16,SE,129,0.0,0.0,94,0.00,CLR,,0.00,WeatherDisplay:10.37,2013-09-19 07:20:00,
2013-09-19 03:25:00,55.1,53.4,30.17,SE,129,0.0,0.0,94,0.00,CLR,,0.00,WeatherDisplay:10.37,2013-09-19 07:25:00,
2013-09-19 03:30:00,55.1,53.4,30.16,SE,129,0.0,0.0,94,0.00,CLR,,0.00,WeatherDisplay:10.37,2013-09-19 07:30:00,
2013-09-19 03:35:00,55.2,53.5,30.16,SE,129,0.0,0.0,94,0.00,CLR,,0.00,WeatherDisplay:10.37,2013-09-19 07:35:00,
2013-09-19 03:40:00,55.2,53.5,30.16,SE,129,0.0,0.0,94,0.00,CLR,,0.00,WeatherDisplay:10.37,2013-09-19 07:40:00,
2013-09-19 03:45:00,55.2,53.5,30.16,SE,129,0.0,0.0,94,0.00,CLR,,0.00,WeatherDisplay:10.37,2013-09-19 07:45:00,
2013-09-19 03:50:00,55.2,53.5,30.16,SE,129,0.0,0.0,94,0.00,CLR,,0.00,WeatherDisplay:10.37,2013-09-19 07:50:00,
2013-09-19 03:55:00,55.2,53.5,30.16,SE,129,0.0,0.0,94,0.00,CLR,,0.00,WeatherDisplay:10.37,2013-09-19 07:55:00,
2013-09-19 04:00:00,55.2,53.5,30.16,SE,129,0.0,0.0,94,0.00,CLR,,0.00,WeatherDisplay:10.37,2013-09-19 08:00:00,
2013-09-19 04:05:00,55.1,53.4,30.16,SE,129,0.0,0.0,94,0.00,CLR,,0.00,WeatherDisplay:10.37,2013-09-19 08:05:00,
2013-09-19 04:10:00,55.1,53.4,30.16,SE,129,0.0,0.0,94,0.00,CLR,,0.00,WeatherDisplay:10.37,2013-09-19 08:10:00,
2013-09-19 04:15:00,55.0,53.3,30.16,SE,129,0.0,0.0,94,0.00,CLR,,0.00,WeatherDisplay:10.37,2013-09-19 08:15:00,
2013-09-19 04:20:00,55.0,53.3,30.16,SE,129,0.0,0.0,94,0.00,CLR,,0.00,WeatherDisplay:10.37,2013-09-19 08:20:00,
2013-09-19 04:25:00,54.9,53.2,30.16,SE,129,0.0,0.0,94,0.00,CLR,,0.00,WeatherDisplay:10.37,2013-09-19 08:25:00,
2013-09-19 04:30:00,54.8,53.1,30.16,SE,129,0.0,0.0,94,0.00,CLR,,0.00,WeatherDisplay:10.37,2013-09-19 08:30:00,
2013-09-19 04:35:00,54.7,53.0,30.16,SE,129,0.0,0.0,94,0.00,CLR,,0.00,WeatherDisplay:10.37,2013-09-19 08:35:00,
2013-09-19 04:40:00,54.7,53.0,30.17,SE,129,0.0,0.0,94,0.00,CLR,,0.00,WeatherDisplay:10.37,2013-09-19 08:40:00,
2013-09-19 04:45:00,54.7,53.0,30.17,SE,129,0.0,0.0,94,0.00,CLR,,0.00,WeatherDisplay:10.37,2013-09-19 08:45:00,
2013-09-19 04:50:00,54.6,52.9,30.17,SE,129,0.0,0.0,94,0.00,CLR,,0.00,WeatherDisplay:10.37,2013-09-19 08:50:00,
2013-09-19 04:55:00,54.6,52.9,30.17,SE,129,0.0,0.0,94,0.00,CLR,,0.00,WeatherDisplay:10.37,2013-09-19 08:55:00,
2013-09-19 05:00:00,54.5,52.8,30.16,SE,129,0.0,0.0,94,0.00,CLR,,0.00,WeatherDisplay:10.37,2013-09-19 09:00:00,
2013-09-19 05:05:00,54.5,52.8,30.16,SE,129,0.0,0.0,94,0.00,CLR,,0.00,WeatherDisplay:10.37,2013-09-19 09:05:00,
2013-09-19 05:10:00,54.5,52.8,30.16,SE,129,0.0,0.0,94,0.00,CLR,,0.00,WeatherDisplay:10.37,2013-09-19 09:10:00,
2013-09-19 05:15:00,54.5,52.8,30.16,SE,129,0.0,0.0,94,0.00,CLR,,0.00,WeatherDisplay:10.37,2013-09-19 09:15:00,
2013-09-19 05:20:00,54.5,52.8,30.16,SE,129,0.0,0.0,94,0.00,CLR,,0.00,WeatherDisplay:10.37,2013-09-19 09:20:00,
2013-09-19 05:25:00,54.5,52.8,30.17,SE,129,0.0,0.0,94,0.00,CLR,,0.00,WeatherDisplay:10.37,2013-09-19 09:25:00,
2013-09-19 05:30:00,54.6,52.9,30.17,SE,129,0.0,0.0,94,0.00,CLR,,0.00,WeatherDisplay:10.37,2013-09-19 09:30:00,
2013-09-19 05:35:00,54.7,53.0,30.17,SE,129,0.0,0.0,94,0.00,CLR,,0.00,WeatherDisplay:10.37,2013-09-19 09:35:00,
2013-09-19 05:40:00,54.8,53.1,30.17,SE,129,0.0,0.0,94,0.00,CLR,,0.00,WeatherDisplay:10.37,2013-09-19 09:40:00,
2013-09-19 05:45:00,54.9,53.2,30.17,SE,129,0.0,0.0,94,0.00,CLR,,0.00,WeatherDisplay:10.37,2013-09-19 09:45:00,
2013-09-19 05:50:00,55.1,53.7,30.17,SE,129,0.0,0.0,95,0.00,CLR,,0.00,WeatherDisplay:10.37,2013-09-19 09:50:00,
2013-09-19 05:55:00,55.2,53.8,30.17,SE,129,0.0,0.0,95,0.00,CLR,,0.00,WeatherDisplay:10.37,2013-09-19 09:55:00,
2013-09-19 06:01:00,55.4,54.0,30.17,SE,129,0.0,0.0,95,0.00,CLR,,0.00,WeatherDisplay:10.37,2013-09-19 10:01:00,
2013-09-19 06:06:00,55.5,54.1,30.17,SE,129,0.0,0.0,95,0.00,CLR,,0.00,WeatherDisplay:10.37,2013-09-19 10:06:00,
2013-09-19 06:11:00,55.6,54.2,30.17,SE,129,0.0,0.0,95,0.00,CLR,,0.00,WeatherDisplay:10.37,2013-09-19 10:11:00,
2013-09-19 06:16:00,55.7,54.3,30.17,SE,129,0.0,0.0,95,0.00,CLR,,0.00,WeatherDisplay:10.37,2013-09-19 10:16:00,
2013-09-19 06:21:00,55.8,54.4,30.17,SE,129,0.0,0.0,95,0.00,CLR,,0.00,WeatherDisplay:10.37,2013-09-19 10:21:00,
2013-09-19 06:26:00,55.9,54.5,30.17,SE,129,0.0,0.0,95,0.00,CLR,,0.00,WeatherDisplay:10.37,2013-09-19 10:26:00,
2013-09-19 06:31:00,56.1,54.7,30.17,SE,129,0.0,0.0,95,0.00,CLR,,0.00,WeatherDisplay:10.37,2013-09-19 10:31:00,
2013-09-19 06:36:00,56.2,54.8,30.17,SE,129,0.0,0.0,95,0.00,CLR,,0.00,WeatherDisplay:10.37,2013-09-19 10:36:00,
2013-09-19 06:41:00,56.3,54.9,30.17,SE,129,0.0,0.0,95,0.00,CLR,,0.00,WeatherDisplay:10.37,2013-09-19 10:41:00,
2013-09-19 06:46:00,56.3,54.9,30.17,SE,129,0.0,0.0,95,0.00,CLR,,0.00,WeatherDisplay:10.37,2013-09-19 10:46:00,
2013-09-19 06:51:00,56.4,55.0,30.17,SE,129,0.0,0.0,95,0.00,CLR,,0.00,WeatherDisplay:10.37,2013-09-19 10:51:00,
2013-09-19 06:56:00,56.5,55.1,30.17,SE,129,0.0,0.0,95,0.00,CLR,,0.00,WeatherDisplay:10.37,2013-09-19 10:56:00,
2013-09-19 07:01:00,56.5,55.1,30.17,SE,129,0.0,0.0,95,0.00,CLR,,0.00,WeatherDisplay:10.37,2013-09-19 11:01:00,
2013-09-19 07:06:00,56.6,55.2,30.17,SE,129,0.0,0.0,95,0.00,CLR,,0.00,WeatherDisplay:10.37,2013-09-19 11:06:00,
2013-09-19 07:11:00,56.7,55.3,30.18,SE,129,0.0,0.0,95,0.00,CLR,,0.00,WeatherDisplay:10.37,2013-09-19 11:11:00,
2013-09-19 07:16:00,56.7,55.3,30.17,SE,129,0.0,0.0,95,0.00,CLR,,0.00,WeatherDisplay:10.37,2013-09-19 11:16:00,
2013-09-19 07:21:00,56.8,55.4,30.17,SE,129,0.0,0.0,95,0.00,CLR,,0.00,WeatherDisplay:10.37,2013-09-19 11:21:00,
2013-09-19 07:26:00,56.8,55.4,30.18,SE,129,0.0,0.0,95,0.00,CLR,,0.00,WeatherDisplay:10.37,2013-09-19 11:26:00,
2013-09-19 07:31:00,56.9,55.5,30.18,SE,129,0.0,0.0,95,0.00,CLR,,0.00,WeatherDisplay:10.37,2013-09-19 11:31:00,
2013-09-19 07:36:00,57.0,55.6,30.18,SE,129,0.0,0.0,95,0.00,CLR,,0.00,WeatherDisplay:10.37,2013-09-19 11:36:00,
2013-09-19 07:41:00,57.0,55.6,30.18,SE,129,0.0,0.0,95,0.00,CLR,,0.00,WeatherDisplay:10.37,2013-09-19 11:41:00,
2013-09-19 07:46:00,57.1,55.7,30.18,SE,129,0.0,0.0,95,0.00,CLR,,0.00,WeatherDisplay:10.37,2013-09-19 11:46:00,
2013-09-19 07:51:00,57.2,55.8,30.18,SE,129,0.0,0.0,95,0.00,CLR,,0.00,WeatherDisplay:10.37,2013-09-19 11:51:00,
2013-09-19 07:56:00,57.3,55.9,30.18,SE,129,0.0,0.0,95,0.00,CLR,,0.00,WeatherDisplay:10.37,2013-09-19 11:56:00,
2013-09-19 08:01:00,57.4,56.0,30.18,SE,129,0.0,0.0,95,0.00,CLR,,0.00,WeatherDisplay:10.37,2013-09-19 12:01:00,
2013-09-19 08:06:00,57.5,56.1,30.18,SE,129,0.0,0.0,95,0.00,CLR,,0.00,WeatherDisplay:10.37,2013-09-19 12:06:00,
2013-09-19 08:11:00,57.7,56.3,30.18,SE,129,1.2,1.2,95,0.00,CLR,,0.00,WeatherDisplay:10.37,2013-09-19 12:11:00,
2013-09-19 08:16:00,57.8,56.4,30.18,SE,129,3.5,3.5,95,0.00,CLR,,0.00,WeatherDisplay:10.37,2013-09-19 12:16:00,
2013-09-19 08:21:00,58.0,56.6,30.18,SE,129,3.5,3.5,95,0.00,CLR,,0.00,WeatherDisplay:10.37,2013-09-19 12:21:00,
2013-09-19 08:26:00,58.1,56.7,30.18,SE,136,3.5,3.5,95,0.00,CLR,,0.00,WeatherDisplay:10.37,2013-09-19 12:26:00,
2013-09-19 08:31:00,58.3,56.9,30.18,SE,136,3.5,3.5,95,0.00,CLR,,0.00,WeatherDisplay:10.37,2013-09-19 12:31:00,
2013-09-19 08:36:00,58.6,57.2,30.18,SE,136,1.2,0.0,95,0.00,CLR,,0.00,WeatherDisplay:10.37,2013-09-19 12:36:00,
2013-09-19 08:41:00,58.8,57.4,30.18,SE,136,3.5,3.5,95,0.00,CLR,,0.00,WeatherDisplay:10.37,2013-09-19 12:41:00,
2013-09-19 08:46:00,59.1,57.4,30.18,SSE,148,3.5,3.5,94,0.00,CLR,,0.00,WeatherDisplay:10.37,2013-09-19 12:46:00,
2013-09-19 08:51:00,59.1,57.4,30.19,SSW,194,3.5,3.5,94,0.00,CLR,,0.00,WeatherDisplay:10.37,2013-09-19 12:51:00,
2013-09-19 08:56:00,59.4,57.4,30.19,SSW,195,3.5,3.5,93,0.00,CLR,,0.00,WeatherDisplay:10.37,2013-09-19 12:56:00,
2013-09-19 09:01:00,59.8,57.5,30.19,SSW,196,3.5,3.5,92,0.00,CLR,,0.00,WeatherDisplay:10.37,2013-09-19 13:01:00,
2013-09-19 09:06:00,60.1,57.8,30.19,SSW,195,3.5,3.5,92,0.00,CLR,,0.00,WeatherDisplay:10.37,2013-09-19 13:06:00,
2013-09-19 09:11:00,60.4,57.1,30.19,SSW,196,3.5,3.5,89,0.00,CLR,,0.00,WeatherDisplay:10.37,2013-09-19 13:11:00,
2013-09-19 09:16:00,60.5,57.2,30.19,SSW,196,3.5,3.5,89,0.00,CLR,,0.00,WeatherDisplay:10.37,2013-09-19 13:16:00,
2013-09-19 09:21:00,60.8,57.2,30.19,SSW,196,1.2,0.0,88,0.00,CLR,,0.00,WeatherDisplay:10.37,2013-09-19 13:21:00,
2013-09-19 09:26:00,61.1,57.2,30.19,SSW,195,2.3,0.0,87,0.00,CLR,,0.00,WeatherDisplay:10.37,2013-09-19 13:26:00,
2013-09-19 09:31:00,61.3,57.4,30.19,SSW,195,3.5,3.5,87,0.00,CLR,,0.00,WeatherDisplay:10.37,2013-09-19 13:31:00,
2013-09-19 09:36:00,61.5,57.3,30.19,SSW,195,0.0,0.1,86,0.00,CLR,,0.00,WeatherDisplay:10.37,2013-09-19 13:36:00,
2013-09-19 09:41:00,61.8,57.2,30.19,SSW,195,3.5,3.5,85,0.00,CLR,,0.00,WeatherDisplay:10.37,2013-09-19 13:41:00,
2013-09-19 09:46:00,62.1,57.5,30.19,SSW,195,3.5,3.5,85,0.00,CLR,,0.00,WeatherDisplay:10.37,2013-09-19 13:46:00,
2013-09-19 09:51:00,62.3,57.4,30.19,SSW,195,3.5,0.0,84,0.00,CLR,,0.00,WeatherDisplay:10.37,2013-09-19 13:51:00,
2013-09-19 09:56:00,62.5,56.9,30.19,SSW,195,3.5,3.5,82,0.00,CLR,,0.00,WeatherDisplay:10.37,2013-09-19 13:56:00,
2013-09-19 10:01:00,62.8,56.9,30.19,SSW,196,3.5,3.5,81,0.00,CLR,,0.00,WeatherDisplay:10.37,2013-09-19 14:01:00,
2013-09-19 10:06:00,63.0,56.7,30.19,SSW,196,3.5,3.5,80,0.00,CLR,,0.00,WeatherDisplay:10.37,2013-09-19 14:06:00,
2013-09-19 10:11:00,63.3,57.0,30.19,SSW,196,1.2,0.0,80,0.00,CLR,,0.00,WeatherDisplay:10.37,2013-09-19 14:11:00,
2013-09-19 10:16:00,63.7,57.4,30.19,SSW,196,2.3,2.3,80,0.00,CLR,,0.00,WeatherDisplay:10.37,2013-09-19 14:16:00,
2013-09-19 10:21:00,64.2,57.9,30.19,SSW,195,3.5,3.5,80,0.00,CLR,,0.00,WeatherDisplay:10.37,2013-09-19 14:21:00,
2013-09-19 10:26:00,64.8,58.1,30.19,SSW,196,3.5,0.0,79,0.00,CLR,,0.00,WeatherDisplay:10.37,2013-09-19 14:26:00,
2013-09-19 10:31:00,65.3,58.6,30.19,SSW,196,3.5,3.5,79,0.00,CLR,,0.00,WeatherDisplay:10.37,2013-09-19 14:31:00,
2013-09-19 10:36:00,65.9,58.1,30.19,SSW,209,5.0,5.0,76,0.00,CLR,,0.00,WeatherDisplay:10.37,2013-09-19 14:36:00,
2013-09-19 10:41:00,66.7,58.5,30.19,SSW,210,3.5,3.5,75,0.00,CLR,,0.00,WeatherDisplay:10.37,2013-09-19 14:41:00,
2013-09-19 10:46:00,67.3,57.6,30.19,SSW,210,3.5,3.5,71,0.00,CLR,,0.00,WeatherDisplay:10.37,2013-09-19 14:46:00,
2013-09-19 10:51:00,67.9,57.8,30.19,SSW,210,3.5,3.5,70,0.00,CLR,,0.00,WeatherDisplay:10.37,2013-09-19 14:51:00,
2013-09-19 10:56:00,68.4,57.8,30.19,SW,223,2.3,2.3,69,0.00,CLR,,0.00,WeatherDisplay:10.37,2013-09-19 14:56:00,
2013-09-19 11:01:00,68.8,57.8,30.19,SW,223,3.5,3.5,68,0.00,CLR,,0.00,WeatherDisplay:10.37,2013-09-19 15:01:00,
2013-09-19 11:06:00,69.4,58.4,30.19,SW,227,3.5,3.5,68,0.00,CLR,,0.00,WeatherDisplay:10.37,2013-09-19 15:06:00,
2013-09-19 11:11:00,69.7,57.8,30.19,SW,225,1.2,1.2,66,0.00,CLR,,0.00,WeatherDisplay:10.37,2013-09-19 15:11:00,
2013-09-19 11:16:00,70.1,58.2,30.19,SW,225,1.2,0.0,66,0.00,CLR,,0.00,WeatherDisplay:10.37,2013-09-19 15:16:00,
2013-09-19 11:21:00,70.4,57.6,30.19,SW,223,1.2,0.0,64,0.00,CLR,,0.00,WeatherDisplay:10.37,2013-09-19 15:21:00,
2013-09-19 11:26:00,70.6,57.8,30.19,SW,224,3.5,3.5,64,0.00,CLR,,0.00,WeatherDisplay:10.37,2013-09-19 15:26:00,
2013-09-19 11:31:00,70.5,57.3,30.19,SW,224,1.2,1.2,63,0.00,CLR,,0.00,WeatherDisplay:10.37,2013-09-19 15:31:00,
2013-09-19 11:36:00,70.5,57.7,30.19,SW,224,0.0,0.0,64,0.00,CLR,,0.00,WeatherDisplay:10.37,2013-09-19 15:36:00,
2013-09-19 11:41:00,70.9,57.7,30.19,SW,224,1.2,0.0,63,0.00,CLR,,0.00,WeatherDisplay:10.37,2013-09-19 15:41:00,
2013-09-19 11:46:00,71.3,56.2,30.19,SW,223,3.5,3.5,59,0.00,CLR,,0.00,WeatherDisplay:10.37,2013-09-19 15:46:00,
2013-09-19 11:51:00,71.4,55.9,30.19,SW,224,0.0,0.0,58,0.00,CLR,,0.00,WeatherDisplay:10.37,2013-09-19 15:51:00,
2013-09-19 11:56:00,71.7,56.1,30.19,SW,223,0.0,0.0,58,0.00,CLR,,0.00,WeatherDisplay:10.37,2013-09-19 15:56:00,
2013-09-19 12:01:00,72.0,56.4,30.19,SW,224,0.0,0.0,58,0.00,CLR,,0.00,WeatherDisplay:10.37,2013-09-19 16:01:00,
2013-09-19 12:06:00,72.3,56.2,30.18,SW,224,1.0,1.0,57,0.00,CLR,,0.00,WeatherDisplay:10.37,2013-09-19 16:06:00,
2013-09-19 12:11:00,72.7,56.6,30.18,SW,224,1.0,0.0,57,0.00,CLR,,0.00,WeatherDisplay:10.37,2013-09-19 16:11:00,
2013-09-19 12:16:00,72.9,56.3,30.18,SW,223,1.2,1.2,56,0.00,CLR,,0.00,WeatherDisplay:10.37,2013-09-19 16:16:00,
2013-09-19 12:21:00,73.3,57.1,30.18,SW,224,0.0,0.0,57,0.00,CLR,,0.00,WeatherDisplay:10.37,2013-09-19 16:21:00,
2013-09-19 12:26:00,73.8,57.1,30.18,SW,219,4.6,4.6,56,0.00,CLR,,0.00,WeatherDisplay:10.37,2013-09-19 16:26:00,
2013-09-19 12:31:00,74.3,57.1,30.18,SW,215,2.3,2.3,55,0.00,CLR,,0.00,WeatherDisplay:10.37,2013-09-19 16:31:00,
2013-09-19 12:36:00,74.4,56.7,30.17,SW,215,0.0,0.0,54,0.00,CLR,,0.00,WeatherDisplay:10.37,2013-09-19 16:36:00,
2013-09-19 12:41:00,74.4,56.2,30.17,SW,215,0.0,0.1,53,0.00,CLR,,0.00,WeatherDisplay:10.37,2013-09-19 16:41:00,
2013-09-19 12:46:00,74.3,56.6,30.17,SW,215,0.0,0.0,54,0.00,CLR,,0.00,WeatherDisplay:10.37,2013-09-19 16:46:00,
2013-09-19 12:51:00,74.4,57.2,30.17,SSW,211,3.5,3.5,55,0.00,CLR,,0.00,WeatherDisplay:10.37,2013-09-19 16:51:00,
2013-09-19 12:56:00,74.9,56.6,30.17,SSW,210,3.5,3.5,53,0.00,CLR,,0.00,WeatherDisplay:10.37,2013-09-19 16:56:00,
2013-09-19 13:01:00,75.5,58.7,30.16,SW,218,1.2,1.2,56,0.00,CLR,,0.00,WeatherDisplay:10.37,2013-09-19 17:01:00,
2013-09-19 13:06:00,75.9,56.5,30.16,ESE,108,3.5,3.5,51,0.00,CLR,,0.00,WeatherDisplay:10.37,2013-09-19 17:06:00,
2013-09-19 13:11:00,76.1,56.1,30.16,ESE,104,1.2,1.2,50,0.00,CLR,,0.00,WeatherDisplay:10.37,2013-09-19 17:11:00,
2013-09-19 13:16:00,76.2,57.3,30.16,WSW,241,3.0,3.0,52,0.00,CLR,,0.00,WeatherDisplay:10.37,2013-09-19 17:16:00,
2013-09-19 13:21:00,76.6,56.6,30.15,SSW,200,3.5,3.5,50,0.00,CLR,,0.00,WeatherDisplay:10.37,2013-09-19 17:21:00,
2013-09-19 13:26:00,76.7,57.7,30.15,ESE,123,3.5,3.5,52,0.00,CLR,,0.00,WeatherDisplay:10.37,2013-09-19 17:26:00,
2013-09-19 13:31:00,76.9,56.8,30.15,SE,136,4.6,4.6,50,0.00,CLR,,0.00,WeatherDisplay:10.37,2013-09-19 17:31:00,
2013-09-19 13:36:00,76.9,57.4,30.14,ESE,115,3.5,3.5,51,0.00,CLR,,0.00,WeatherDisplay:10.37,2013-09-19 17:36:00,
2013-09-19 13:41:00,76.9,57.9,30.14,East,99,6.9,6.9,52,0.00,CLR,,0.00,WeatherDisplay:10.37,2013-09-19 17:41:00,
2013-09-19 13:46:00,77.3,57.8,30.14,SE,129,1.2,1.2,51,0.00,CLR,,0.00,WeatherDisplay:10.37,2013-09-19 17:46:00,
2013-09-19 13:51:00,77.7,58.1,30.13,SSW,207,5.8,5.8,51,0.00,CLR,,0.00,WeatherDisplay:10.37,2013-09-19 17:51:00,
2013-09-19 13:56:00,77.8,58.2,30.13,SSW,206,3.5,6.4,51,0.00,CLR,,0.00,WeatherDisplay:10.37,2013-09-19 17:56:00,
2013-09-19 14:01:00,77.8,57.7,30.13,SW,229,6.9,6.9,50,0.00,CLR,,0.00,WeatherDisplay:10.37,2013-09-19 18:01:00,
2013-09-19 14:06:00,77.8,57.1,30.13,SE,137,4.6,4.6,49,0.00,CLR,,0.00,WeatherDisplay:10.37,2013-09-19 18:06:00,
2013-09-19 14:11:00,77.6,57.5,30.12,NNW,348,1.2,1.2,50,0.00,CLR,,0.00,WeatherDisplay:10.37,2013-09-19 18:11:00,
2013-09-19 14:16:00,77.2,57.1,30.12,NNW,327,3.5,3.5,50,0.00,CLR,,0.00,WeatherDisplay:10.37,2013-09-19 18:16:00,
2013-09-19 14:21:00,77.2,57.7,30.12,NNW,327,3.0,3.0,51,0.00,CLR,,0.00,WeatherDisplay:10.37,2013-09-19 18:21:00,
2013-09-19 14:26:00,77.4,57.3,30.12,NW,316,3.5,3.5,50,0.00,CLR,,0.00,WeatherDisplay:10.37,2013-09-19 18:26:00,
2013-09-19 14:31:00,77.7,58.1,30.12,WNW,297,1.2,1.4,51,0.00,CLR,,0.00,WeatherDisplay:10.37,2013-09-19 18:31:00,
2013-09-19 14:36:00,78.2,57.5,30.12,West,268,6.9,6.9,49,0.00,CLR,,0.00,WeatherDisplay:10.37,2013-09-19 18:36:00,
2013-09-19 14:41:00,78.5,58.3,30.12,WSW,237,3.5,3.5,50,0.00,CLR,,0.00,WeatherDisplay:10.37,2013-09-19 18:41:00,
2013-09-19 14:46:00,78.6,57.8,30.12,WSW,256,3.5,3.5,49,0.00,CLR,,0.00,WeatherDisplay:10.37,2013-09-19 18:46:00,
2013-09-19 14:51:00,78.4,57.1,30.12,SSW,206,2.3,2.3,48,0.00,CLR,,0.00,WeatherDisplay:10.37,2013-09-19 18:51:00,
2013-09-19 14:56:00,78.0,57.3,30.11,SSE,161,3.5,3.5,49,0.00,CLR,,0.00,WeatherDisplay:10.37,2013-09-19 18:56:00,
2013-09-19 15:01:00,77.9,57.2,30.11,South,189,4.6,4.6,49,0.00,CLR,,0.00,WeatherDisplay:10.37,2013-09-19 19:01:00,
2013-09-19 15:06:00,77.7,57.6,30.11,South,187,1.2,1.2,50,0.00,CLR,,0.00,WeatherDisplay:10.37,2013-09-19 19:06:00,
2013-09-19 15:11:00,77.5,57.9,30.11,SW,221,9.2,9.2,51,0.00,CLR,,0.00,WeatherDisplay:10.37,2013-09-19 19:11:00,
2013-09-19 15:16:00,77.3,57.2,30.11,West,276,4.6,4.6,50,0.00,CLR,,0.00,WeatherDisplay:10.37,2013-09-19 19:16:00,
2013-09-19 15:21:00,77.1,57.6,30.11,West,271,4.6,4.6,51,0.00,CLR,,0.00,WeatherDisplay:10.37,2013-09-19 19:21:00,
2013-09-19 15:26:00,77.0,57.5,30.11,West,269,1.2,1.2,51,0.00,CLR,,0.00,WeatherDisplay:10.37,2013-09-19 19:26:00,
2013-09-19 15:31:00,76.8,56.8,30.11,WSW,257,3.5,3.5,50,0.00,CLR,,0.00,WeatherDisplay:10.37,2013-09-19 19:31:00,
2013-09-19 15:36:00,76.7,57.7,30.11,SW,234,3.5,3.5,52,0.00,CLR,,0.00,WeatherDisplay:10.37,2013-09-19 19:36:00,
2013-09-19 15:41:00,76.6,58.2,30.11,West,259,1.2,0.0,53,0.00,CLR,,0.00,WeatherDisplay:10.37,2013-09-19 19:41:00,
2013-09-19 15:46:00,76.4,57.5,30.11,NW,313,0.0,0.0,52,0.00,CLR,,0.00,WeatherDisplay:10.37,2013-09-19 19:46:00,
2013-09-19 15:51:00,76.2,57.8,30.10,West,260,4.6,4.6,53,0.00,CLR,,0.00,WeatherDisplay:10.37,2013-09-19 19:51:00,
2013-09-19 15:56:00,76.1,58.2,30.10,West,271,4.6,4.6,54,0.00,CLR,,0.00,WeatherDisplay:10.37,2013-09-19 19:56:00,
2013-09-19 16:01:00,76.0,58.2,30.10,West,271,4.6,4.6,54,0.00,CLR,,0.00,WeatherDisplay:10.37,2013-09-19 20:01:00,
2013-09-19 16:06:00,75.9,58.6,30.10,West,273,3.5,3.5,55,0.00,CLR,,0.00,WeatherDisplay:10.37,2013-09-19 20:06:00,
2013-09-19 16:11:00,75.8,58.5,30.10,West,273,2.3,2.3,55,0.00,CLR,,0.00,WeatherDisplay:10.37,2013-09-19 20:11:00,
2013-09-19 16:16:00,75.8,58.5,30.10,SSW,206,4.6,4.6,55,0.00,CLR,,0.00,WeatherDisplay:10.37,2013-09-19 20:16:00,
2013-09-19 16:21:00,75.8,58.5,30.10,NW,311,3.5,3.5,55,0.00,CLR,,0.00,WeatherDisplay:10.37,2013-09-19 20:21:00,
2013-09-19 16:26:00,75.8,58.5,30.10,NW,312,0.0,0.0,55,0.00,CLR,,0.00,WeatherDisplay:10.37,2013-09-19 20:26:00,
2013-09-19 16:31:00,75.8,59.0,30.10,NW,312,1.2,1.2,56,0.00,CLR,,0.00,WeatherDisplay:10.37,2013-09-19 20:31:00,
2013-09-19 16:36:00,75.8,59.0,30.10,NW,311,0.0,0.0,56,0.00,CLR,,0.00,WeatherDisplay:10.37,2013-09-19 20:36:00,
2013-09-19 16:41:00,75.7,58.9,30.10,NW,312,1.2,1.2,56,0.00,CLR,,0.00,WeatherDisplay:10.37,2013-09-19 20:41:00,
2013-09-19 16:46:00,75.6,58.8,30.10,NW,312,0.0,0.0,56,0.00,CLR,,0.00,WeatherDisplay:10.37,2013-09-19 20:46:00,
2013-09-19 16:51:00,75.5,59.2,30.10,NW,325,1.2,1.2,57,0.00,CLR,,0.00,WeatherDisplay:10.37,2013-09-19 20:51:00,
2013-09-19 16:56:00,75.4,58.6,30.10,NW,324,3.5,3.5,56,0.00,CLR,,0.00,WeatherDisplay:10.37,2013-09-19 20:56:00,
2013-09-19 17:01:00,75.2,58.4,30.10,NW,323,0.0,0.0,56,0.00,CLR,,0.00,WeatherDisplay:10.37,2013-09-19 21:01:00,
2013-09-19 17:06:00,75.0,58.2,30.10,NW,323,3.5,3.5,56,0.00,CLR,,0.00,WeatherDisplay:10.37,2013-09-19 21:06:00,
2013-09-19 17:11:00,74.9,59.1,30.10,NW,323,0.0,0.0,58,0.00,CLR,,0.00,WeatherDisplay:10.37,2013-09-19 21:11:00,
2013-09-19 17:16:00,74.8,58.5,30.10,NW,324,0.0,0.0,57,0.00,CLR,,0.00,WeatherDisplay:10.37,2013-09-19 21:16:00,
2013-09-19 17:21:00,74.6,58.8,30.10,NW,324,0.0,0.0,58,0.00,CLR,,0.00,WeatherDisplay:10.37,2013-09-19 21:21:00,
2013-09-19 17:26:00,74.5,59.2,30.10,NW,324,0.0,0.0,59,0.00,CLR,,0.00,WeatherDisplay:10.37,2013-09-19 21:26:00,
2013-09-19 17:31:00,74.5,59.2,30.10,NW,324,0.0,0.0,59,0.00,CLR,,0.00,WeatherDisplay:10.37,2013-09-19 21:31:00,
2013-09-19 17:36:00,74.4,59.1,30.10,NW,324,0.0,0.0,59,0.00,CLR,,0.00,WeatherDisplay:10.37,2013-09-19 21:36:00,
2013-09-19 17:41:00,74.3,59.0,30.10,NW,323,0.0,0.0,59,0.00,CLR,,0.00,WeatherDisplay:10.37,2013-09-19 21:41:00,
2013-09-19 17:46:00,74.3,59.0,30.10,NW,323,0.0,0.0,59,0.00,CLR,,0.00,WeatherDisplay:10.37,2013-09-19 21:46:00,
2013-09-19 17:51:00,74.3,59.0,30.10,NW,324,0.0,0.0,59,0.00,CLR,,0.00,WeatherDisplay:10.37,2013-09-19 21:51:00,
2013-09-19 17:56:00,74.3,59.5,30.10,NW,323,1.2,0.0,60,0.00,CLR,,0.00,WeatherDisplay:10.37,2013-09-19 21:56:00,
2013-09-19 18:01:00,74.2,58.9,30.10,NW,323,1.2,0.0,59,0.00,CLR,,0.00,WeatherDisplay:10.37,2013-09-19 22:01:00,
2013-09-19 18:06:00,74.1,58.9,30.10,NW,324,0.0,0.0,59,0.00,CLR,,0.00,WeatherDisplay:10.37,2013-09-19 22:06:00,
2013-09-19 18:11:00,74.0,59.2,30.10,NW,324,0.0,0.0,60,0.00,CLR,,0.00,WeatherDisplay:10.37,2013-09-19 22:11:00,
2013-09-19 18:16:00,74.0,60.2,30.10,NW,323,0.0,0.0,62,0.00,CLR,,0.00,WeatherDisplay:10.37,2013-09-19 22:16:00,
2013-09-19 18:21:00,73.9,60.5,30.10,NW,324,1.2,0.0,63,0.00,CLR,,0.00,WeatherDisplay:10.37,2013-09-19 22:21:00,
2013-09-19 18:26:00,73.8,60.4,30.10,NW,324,0.0,0.0,63,0.00,CLR,,0.00,WeatherDisplay:10.37,2013-09-19 22:26:00,
2013-09-19 18:31:00,73.7,60.8,30.10,NW,324,0.0,0.0,64,0.00,CLR,,0.00,WeatherDisplay:10.37,2013-09-19 22:31:00,
2013-09-19 18:36:00,73.5,61.0,30.10,NW,304,0.0,0.0,65,0.00,CLR,,0.00,WeatherDisplay:10.37,2013-09-19 22:36:00,
2013-09-19 18:41:00,73.3,61.3,30.10,NW,304,0.0,0.0,66,0.00,CLR,,0.00,WeatherDisplay:10.37,2013-09-19 22:41:00,
2013-09-19 18:46:00,73.1,61.1,30.10,NW,304,0.0,0.0,66,0.00,CLR,,0.00,WeatherDisplay:10.37,2013-09-19 22:46:00,
2013-09-19 18:51:00,72.9,61.3,30.10,NW,304,0.0,0.0,67,0.00,CLR,,0.00,WeatherDisplay:10.37,2013-09-19 22:51:00,
2013-09-19 18:56:00,72.7,61.1,30.09,NW,304,0.0,0.0,67,0.00,CLR,,0.00,WeatherDisplay:10.37,2013-09-19 22:56:00,
2013-09-19 19:01:00,72.4,60.8,30.09,NW,304,0.0,0.0,67,0.00,CLR,,0.00,WeatherDisplay:10.37,2013-09-19 23:01:00,
2013-09-19 19:06:00,72.1,61.4,30.09,NW,304,0.0,0.0,69,0.00,CLR,,0.00,WeatherDisplay:10.37,2013-09-19 23:06:00,
2013-09-19 19:11:00,71.8,61.1,30.10,NW,304,0.0,0.0,69,0.00,CLR,,0.00,WeatherDisplay:10.37,2013-09-19 23:11:00,
2013-09-19 19:16:00,71.6,60.9,30.09,NW,304,0.0,0.0,69,0.00,CLR,,0.00,WeatherDisplay:10.37,2013-09-19 23:16:00,
2013-09-19 19:21:00,71.4,61.1,30.09,NW,304,0.0,0.0,70,0.00,CLR,,0.00,WeatherDisplay:10.37,2013-09-19 23:21:00,
2013-09-19 19:26:00,71.2,61.3,30.09,NW,304,0.0,0.0,71,0.00,CLR,,0.00,WeatherDisplay:10.37,2013-09-19 23:26:00,
2013-09-19 19:31:00,71.0,61.1,30.09,NW,304,0.0,0.0,71,0.00,CLR,,0.00,WeatherDisplay:10.37,2013-09-19 23:31:00,
2013-09-19 19:36:00,70.8,60.9,30.09,NW,304,0.0,0.0,71,0.00,CLR,,0.00,WeatherDisplay:10.37,2013-09-19 23:36:00,
2013-09-19 19:41:00,70.6,60.7,30.09,NW,304,0.0,0.0,71,0.00,CLR,,0.00,WeatherDisplay:10.37,2013-09-19 23:41:00,
2013-09-19 19:46:00,70.3,60.8,30.09,NW,304,0.0,0.0,72,0.00,CLR,,0.00,WeatherDisplay:10.37,2013-09-19 23:46:00,
2013-09-19 19:51:00,70.1,60.7,30.09,NW,304,0.0,0.0,72,0.00,CLR,,0.00,WeatherDisplay:10.37,2013-09-19 23:51:00,
2013-09-19 19:56:00,69.8,60.4,30.09,NW,304,0.0,0.0,72,0.00,CLR,,0.00,WeatherDisplay:10.37,2013-09-19 23:56:00,
2013-09-19 20:01:00,69.6,60.2,30.09,NW,304,0.0,0.0,72,0.00,CLR,,0.00,WeatherDisplay:10.37,2013-09-20 00:01:00,
2013-09-19 20:06:00,69.3,60.3,30.09,NW,304,0.0,0.0,73,0.00,CLR,,0.00,WeatherDisplay:10.37,2013-09-20 00:06:00,
2013-09-19 20:11:00,69.0,60.0,30.09,NW,304,0.0,0.0,73,0.00,CLR,,0.00,WeatherDisplay:10.37,2013-09-20 00:11:00,
2013-09-19 20:16:00,68.7,60.5,30.09,NW,304,0.0,0.0,75,0.00,CLR,,0.00,WeatherDisplay:10.37,2013-09-20 00:16:00,
2013-09-19 20:21:00,68.4,60.2,30.09,NW,304,0.0,0.0,75,0.00,CLR,,0.00,WeatherDisplay:10.37,2013-09-20 00:21:00,
2013-09-19 20:26:00,68.1,59.9,30.09,NW,304,0.0,0.0,75,0.00,CLR,,0.00,WeatherDisplay:10.37,2013-09-20 00:26:00,
2013-09-19 20:31:00,67.7,59.5,30.10,NW,304,0.0,0.0,75,0.00,CLR,,0.00,WeatherDisplay:10.37,2013-09-20 00:31:00,
2013-09-19 20:36:00,67.3,59.5,30.10,NW,304,0.0,0.0,76,0.00,CLR,,0.00,WeatherDisplay:10.37,2013-09-20 00:36:00,
2013-09-19 20:41:00,67.1,59.6,30.10,NW,304,0.0,0.0,77,0.00,CLR,,0.00,WeatherDisplay:10.37,2013-09-20 00:41:00,
2013-09-19 20:46:00,66.8,59.4,30.10,NW,304,0.0,0.0,77,0.00,CLR,,0.00,WeatherDisplay:10.37,2013-09-20 00:46:00,
2013-09-19 20:52:00,66.6,59.5,30.10,NW,304,0.0,0.0,78,0.00,CLR,,0.00,WeatherDisplay:10.37,2013-09-20 00:52:00,
2013-09-19 20:57:00,66.4,59.3,30.10,NW,304,0.0,0.0,78,0.00,CLR,,0.00,WeatherDisplay:10.37,2013-09-20 00:57:00,
2013-09-19 21:02:00,66.3,59.6,30.09,NW,304,0.0,0.0,79,0.00,CLR,,0.00,WeatherDisplay:10.37,2013-09-20 01:02:00,
2013-09-19 21:07:00,66.2,59.8,30.09,NW,304,0.0,0.0,80,0.00,CLR,,0.00,WeatherDisplay:10.37,2013-09-20 01:07:00,
2013-09-19 21:12:00,66.1,60.1,30.10,NW,304,0.0,0.0,81,0.00,CLR,,0.00,WeatherDisplay:10.37,2013-09-20 01:12:00,
2013-09-19 21:17:00,66.0,60.0,30.09,NW,304,0.0,0.0,81,0.00,CLR,,0.00,WeatherDisplay:10.37,2013-09-20 01:17:00,
2013-09-19 21:22:00,65.9,59.9,30.10,NW,304,0.0,0.0,81,0.00,CLR,,0.00,WeatherDisplay:10.37,2013-09-20 01:22:00,
2013-09-19 21:27:00,65.8,60.2,30.10,NW,304,0.0,0.0,82,0.00,CLR,,0.00,WeatherDisplay:10.37,2013-09-20 01:27:00,
2013-09-19 21:32:00,65.7,60.1,30.10,NW,304,0.0,0.0,82,0.00,CLR,,0.00,WeatherDisplay:10.37,2013-09-20 01:32:00,
2013-09-19 21:37:00,65.6,60.0,30.10,NW,304,0.0,0.0,82,0.00,CLR,,0.00,WeatherDisplay:10.37,2013-09-20 01:37:00,
2013-09-19 21:42:00,65.5,59.9,30.10,NW,304,0.0,0.0,82,0.00,CLR,,0.00,WeatherDisplay:10.37,2013-09-20 01:42:00,
2013-09-19 21:47:00,65.5,59.9,30.10,NW,304,0.0,0.0,82,0.00,CLR,,0.00,WeatherDisplay:10.37,2013-09-20 01:47:00,
2013-09-19 21:52:00,65.4,59.8,30.10,NW,304,0.0,0.0,82,0.00,CLR,,0.00,WeatherDisplay:10.37,2013-09-20 01:52:00,
2013-09-19 21:57:00,65.4,60.4,30.10,NW,304,0.0,0.0,84,0.00,CLR,,0.00,WeatherDisplay:10.37,2013-09-20 01:57:00,
2013-09-19 22:02:00,65.4,60.4,30.09,NW,304,0.0,0.0,84,0.00,CLR,,0.00,WeatherDisplay:10.37,2013-09-20 02:02:00,
2013-09-19 22:07:00,65.4,60.4,30.09,NW,304,0.0,0.0,84,0.00,CLR,,0.00,WeatherDisplay:10.37,2013-09-20 02:07:00,
2013-09-19 22:12:00,65.4,60.8,30.09,NW,304,0.0,0.0,85,0.00,CLR,,0.00,WeatherDisplay:10.37,2013-09-20 02:12:00,
2013-09-19 22:17:00,65.4,60.8,30.09,NW,304,0.0,0.0,85,0.00,CLR,,0.00,WeatherDisplay:10.37,2013-09-20 02:17:00,
2013-09-19 22:22:00,65.3,60.7,30.09,NW,304,0.0,0.0,85,0.00,CLR,,0.00,WeatherDisplay:10.37,2013-09-20 02:22:00,
2013-09-19 22:27:00,65.3,60.7,30.09,NW,304,0.0,0.0,85,0.00,CLR,,0.00,WeatherDisplay:10.37,2013-09-20 02:27:00,
2013-09-19 22:32:00,65.2,60.6,30.09,NW,304,0.0,0.0,85,0.00,CLR,,0.00,WeatherDisplay:10.37,2013-09-20 02:32:00,
2013-09-19 22:37:00,65.1,60.5,30.09,NW,304,0.0,0.0,85,0.00,CLR,,0.00,WeatherDisplay:10.37,2013-09-20 02:37:00,
2013-09-19 22:42:00,65.0,60.0,30.09,NW,304,0.0,0.0,84,0.00,CLR,,0.00,WeatherDisplay:10.37,2013-09-20 02:42:00,
2013-09-19 22:47:00,64.9,59.9,30.09,NW,304,0.0,0.0,84,0.00,CLR,,0.00,WeatherDisplay:10.37,2013-09-20 02:47:00,
2013-09-19 22:52:00,64.8,60.2,30.09,NW,304,0.0,0.0,85,0.00,CLR,,0.00,WeatherDisplay:10.37,2013-09-20 02:52:00,
2013-09-19 22:57:00,64.6,59.7,30.08,NW,304,0.0,0.0,84,0.00,CLR,,0.00,WeatherDisplay:10.37,2013-09-20 02:57:00,
2013-09-19 23:02:00,64.5,59.6,30.08,NW,304,0.0,0.0,84,0.00,CLR,,0.00,WeatherDisplay:10.37,2013-09-20 03:02:00,
2013-09-19 23:07:00,64.3,59.4,30.08,NW,304,0.0,0.0,84,0.00,CLR,,0.00,WeatherDisplay:10.37,2013-09-20 03:07:00,
2013-09-19 23:12:00,64.2,59.3,30.08,NW,304,0.0,0.0,84,0.00,CLR,,0.00,WeatherDisplay:10.37,2013-09-20 03:12:00,
2013-09-19 23:17:00,64.1,59.5,30.08,NW,304,0.0,0.0,85,0.00,CLR,,0.00,WeatherDisplay:10.37,2013-09-20 03:17:00,
2013-09-19 23:22:00,64.0,59.4,30.08,NW,304,0.0,0.0,85,0.00,CLR,,0.00,WeatherDisplay:10.37,2013-09-20 03:22:00,
2013-09-19 23:27:00,63.9,59.6,30.08,NW,304,0.0,0.0,86,0.00,CLR,,0.00,WeatherDisplay:10.37,2013-09-20 03:27:00,
2013-09-19 23:32:00,63.7,59.1,30.08,NW,304,0.0,0.0,85,0.00,CLR,,0.00,WeatherDisplay:10.37,2013-09-20 03:32:00,
2013-09-19 23:37:00,63.5,58.9,30.08,NW,304,0.0,0.0,85,0.00,CLR,,0.00,WeatherDisplay:10.37,2013-09-20 03:37:00,
2013-09-19 23:42:00,63.3,59.0,30.08,NW,304,0.0,0.0,86,0.00,CLR,,0.00,WeatherDisplay:10.37,2013-09-20 03:42:00,
2013-09-19 23:47:00,63.1,58.8,30.08,NW,304,0.0,0.0,86,0.00,CLR,,0.00,WeatherDisplay:10.37,2013-09-20 03:47:00,
2013-09-19 23:52:00,62.9,58.3,30.08,NW,304,0.0,0.0,85,0.00,CLR,,0.00,WeatherDisplay:10.37,2013-09-20 03:52:00,
2013-09-19 23:57:00,62.7,58.5,30.08,NW,304,0.0,0.0,86,0.00,CLR,,0.00,WeatherDisplay:10.37,2013-09-20 03:57:00,